Weather History for Williams, AZ

Change the Weather History Date:

Sunday, July 21, 2013

  Actual Average (KFLG) Record (KFLG)
Temperature  
Mean Temperature 65 °F 67 °F  
Max Temperature 73 °F 81 °F 92 °F (1937)
Min Temperature 57 °F 52 °F 38 °F (1924)
Degree Days  
Heating Degree Days 0 1  
Month to date heating degree days 26  
Since 1 July heating degree days 26  
Cooling Degree Days 0 2  
Month to date cooling degree days 42  
Year to date cooling degree days 59  
Growing Degree Days 15 (Base 50)    
Moisture  
Dew Point 57 °F    
Average Humidity 79    
Maximum Humidity 100    
Minimum Humidity 57    
Precipitation  
Precipitation 0.30 in 0.10 in 1.20 in (1918)
Month to date precipitation 1.50  
Year to date precipitation 9.97  
Snow  
Snow 0.00 in 0.00 in 0.00 in (2002)
Month to date snowfall 0.0  
Since 1 July snowfall 0.0  
Snow Depth -    
Sea Level Pressure  
Sea Level Pressure 30.28 in    
Wind  
Wind Speed 6 mph (SSW)    
Max Wind Speed 16 mph    
Max Gust Speed 21 mph    
Visibility 10 miles    
Events      
T = Trace of Precipitation, MM = Missing Value Source: NWS Daily Summary

Daily Weather History Graph

Daily Weather History Graph

Search for Another Location

Airport:

Trip Planner

Search our weather history database for the weather conditions in past years. The results will help you decide how hot, cold, wet, or windy it might be!

Date:

Astronomy

Jul. 21, 2013 Rise Set
Actual Time 5:29 AM MST 7:40 PM MST
Civil Twilight 5:00 AM MST 8:09 PM MST
Nautical Twilight 4:25 AM MST 8:44 PM MST
Astronomical Twilight 3:47 AM MST 9:21 PM MST
Moon 6:43 PM MST (7/21) 4:18 AM MST (7/21)
Length of Visible Light 15h 08m
Length of Day
14h 10m
Waxing Gibbous, 99% of the Moon is Illuminated
Jul 21
Waxing Gibbous
Jul 22
Full
Jul 29
Last Quarter
Aug 6
New
Aug 14
First Quarter

Hourly Weather History & Observations

Time (MST) Temp. Dew Point Humidity Pressure Visibility Wind Dir Wind Speed Gust Speed Precip Events Conditions
12:15 AM 59.0 °F 55.4 °F 88% 30.31 in 5.0 mi ENE 12.7 mph - 0.05 in   Overcast
12:35 AM 59.0 °F 55.4 °F 88% 30.29 in 6.0 mi ENE 10.4 mph - 0.09 in   Mostly Cloudy
12:55 AM 59.0 °F 55.4 °F 88% 30.28 in 9.0 mi ENE 8.1 mph - 0.11 in   Overcast
1:15 AM 57.2 °F 55.4 °F 94% 30.26 in 10.0 mi Calm Calm - N/A   Overcast
1:35 AM 57.2 °F 55.4 °F 94% 30.25 in 10.0 mi Calm Calm - 0.01 in   Mostly Cloudy
1:55 AM 57.2 °F 55.4 °F 94% 30.24 in 10.0 mi SSE 5.8 mph - 0.01 in   Overcast
2:15 AM 57.2 °F 55.4 °F 94% 30.22 in 10.0 mi SE 5.8 mph - N/A   Mostly Cloudy
2:35 AM 57.2 °F 55.4 °F 94% 30.23 in 10.0 mi SE 12.7 mph 18.4 mph N/A   Partly Cloudy
2:55 AM 57.2 °F 53.6 °F 88% 30.21 in 10.0 mi SSE 10.4 mph - N/A   Clear
3:15 AM 57.2 °F 53.6 °F 88% 30.20 in 10.0 mi South 9.2 mph - N/A   Clear
3:35 AM 59.0 °F 53.6 °F 82% 30.19 in 10.0 mi Calm Calm - N/A   Mostly Cloudy
3:55 AM 59.0 °F 55.4 °F 88% 30.19 in 8.0 mi North 5.8 mph 16.1 mph 0.01 in   Overcast
4:15 AM 57.2 °F 55.4 °F 94% 30.21 in 10.0 mi Calm Calm - N/A   Scattered Clouds
4:35 AM 59.0 °F 53.6 °F 82% 30.22 in 10.0 mi ENE 4.6 mph - N/A   Partly Cloudy
4:55 AM 59.0 °F 55.4 °F 88% 30.22 in 10.0 mi East 5.8 mph - N/A   Scattered Clouds
5:15 AM 57.2 °F 55.4 °F 94% 30.22 in 10.0 mi SE 6.9 mph - N/A   Scattered Clouds
5:35 AM 57.2 °F 53.6 °F 88% 30.23 in 10.0 mi ESE 5.8 mph - N/A   Partly Cloudy
5:55 AM 57.2 °F 55.4 °F 94% 30.23 in 10.0 mi Calm Calm - N/A   Clear
6:15 AM 57.2 °F 55.4 °F 94% 30.24 in 10.0 mi SSE 6.9 mph - N/A   Partly Cloudy
6:35 AM 59.0 °F 55.4 °F 88% 30.24 in 10.0 mi SSE 6.9 mph - N/A   Scattered Clouds
6:55 AM 59.0 °F 55.4 °F 88% 30.25 in 10.0 mi SSE 8.1 mph - N/A   Partly Cloudy
7:15 AM 59.0 °F 57.2 °F 94% 30.26 in 10.0 mi SSE 6.9 mph - N/A   Mostly Cloudy
7:35 AM 60.8 °F 57.2 °F 88% 30.26 in 10.0 mi SSE 3.5 mph - N/A   Scattered Clouds
7:55 AM 62.6 °F 57.2 °F 82% 30.27 in 10.0 mi SE 3.5 mph - N/A   Clear
8:15 AM 64.4 °F 57.2 °F 77% 30.28 in 10.0 mi WNW 3.5 mph - N/A   Partly Cloudy
8:35 AM 64.4 °F 55.4 °F 73% 30.29 in 10.0 mi Calm Calm - N/A   Scattered Clouds
8:55 AM 66.2 °F 55.4 °F 68% 30.29 in 10.0 mi Calm Calm - N/A   Partly Cloudy
9:15 AM 66.2 °F 55.4 °F 68% 30.29 in 10.0 mi Calm Calm - N/A   Partly Cloudy
9:35 AM 66.2 °F 55.4 °F 68% 30.30 in 10.0 mi Calm Calm - N/A   Partly Cloudy
9:55 AM 66.2 °F 55.4 °F 68% 30.30 in 10.0 mi Calm Calm - N/A   Clear
10:15 AM 68.0 °F 57.2 °F 68% 30.30 in 10.0 mi Calm Calm - N/A   Clear
11:15 AM 71.6 °F 57.2 °F 60% 30.30 in 10.0 mi West 5.8 mph - N/A   Clear
11:35 AM 69.8 °F 59.0 °F 68% 30.31 in 10.0 mi WSW 8.1 mph - N/A   Partly Cloudy
11:55 AM 69.8 °F 59.0 °F 68% 30.30 in 10.0 mi WSW 8.1 mph - N/A   Scattered Clouds
12:15 PM 71.6 °F 59.0 °F 64% 30.30 in 10.0 mi West 6.9 mph - N/A   Scattered Clouds
12:35 PM 71.6 °F 59.0 °F 64% 30.29 in 10.0 mi WSW 8.1 mph - N/A   Partly Cloudy
12:55 PM 73.4 °F 59.0 °F 61% 30.29 in 10.0 mi WSW 8.1 mph - N/A   Partly Cloudy
1:15 PM 73.4 °F 59.0 °F 61% 30.29 in 10.0 mi SW 6.9 mph - N/A   Mostly Cloudy
1:35 PM 69.8 °F 59.0 °F 68% 30.29 in 9.0 mi West 9.2 mph - N/A   Mostly Cloudy
1:55 PM 73.4 °F 57.2 °F 57% 30.28 in 10.0 mi WSW 10.4 mph - N/A   Mostly Cloudy
2:15 PM 73.4 °F 59.0 °F 61% 30.29 in 10.0 mi WSW 11.5 mph 17.3 mph N/A   Mostly Cloudy
2:35 PM 73.4 °F 57.2 °F 57% 30.29 in 10.0 mi SW 12.7 mph - N/A   Mostly Cloudy
2:55 PM 71.6 °F 57.2 °F 60% 30.29 in 10.0 mi WSW 11.5 mph - N/A   Mostly Cloudy
3:15 PM 73.4 °F 57.2 °F 57% 30.28 in 10.0 mi SW 9.2 mph 17.3 mph N/A   Mostly Cloudy
3:35 PM 73.4 °F 59.0 °F 61% 30.28 in 10.0 mi WSW 11.5 mph - N/A   Mostly Cloudy
3:55 PM 71.6 °F 59.0 °F 64% 30.29 in 10.0 mi WSW 6.9 mph - N/A   Mostly Cloudy
4:15 PM 71.6 °F 57.2 °F 60% 30.28 in 10.0 mi SW 8.1 mph - N/A   Mostly Cloudy
4:35 PM 68.0 °F 59.0 °F 73% 30.28 in 10.0 mi SW 9.2 mph - N/A   Scattered Clouds
4:55 PM 68.0 °F 59.0 °F 73% 30.28 in 10.0 mi SSW 10.4 mph - N/A   Scattered Clouds
5:15 PM 66.2 °F 59.0 °F 78% 30.28 in 10.0 mi SSW 6.9 mph - N/A   Partly Cloudy
5:35 PM 66.2 °F 59.0 °F 78% 30.27 in 10.0 mi South 6.9 mph - N/A   Clear
5:55 PM 68.0 °F 59.0 °F 73% 30.27 in 10.0 mi Calm Calm - N/A   Clear
6:15 PM 68.0 °F 57.2 °F 68% 30.26 in 10.0 mi Calm Calm - N/A   Clear
6:35 PM 68.0 °F 57.2 °F 68% 30.26 in 10.0 mi Calm Calm - N/A   Clear
6:55 PM 66.2 °F 57.2 °F 73% 30.27 in 10.0 mi Calm Calm - N/A   Clear
7:15 PM 66.2 °F 57.2 °F 73% 30.28 in 10.0 mi Calm Calm - N/A   Clear
7:35 PM 64.4 °F 59.0 °F 83% 30.29 in 10.0 mi Calm Calm - N/A   Clear
7:55 PM 64.4 °F 59.0 °F 83% 30.31 in 10.0 mi Calm Calm - N/A   Clear
8:15 PM 64.4 °F 59.0 °F 83% 30.31 in 10.0 mi Calm Calm - N/A   Clear
8:35 PM 64.4 °F 59.0 °F 83% 30.32 in 10.0 mi Calm Calm - N/A   Clear
8:55 PM 62.6 °F 59.0 °F 88% 30.32 in 10.0 mi Calm Calm - N/A   Mostly Cloudy
9:15 PM 62.6 °F 57.2 °F 82% 30.32 in 10.0 mi Calm Calm - N/A   Mostly Cloudy
9:35 PM 62.6 °F 59.0 °F 88% 30.33 in 10.0 mi Calm Calm - N/A   Mostly Cloudy
9:55 PM 62.6 °F 57.2 °F 82% 30.34 in 10.0 mi Calm Calm - N/A   Overcast
10:15 PM 62.6 °F 57.2 °F 82% 30.34 in 10.0 mi Calm Calm - N/A   Overcast
10:35 PM 62.6 °F 59.0 °F 88% 30.34 in 10.0 mi NE 9.2 mph - N/A   Overcast
10:55 PM 62.6 °F 55.4 °F 77% 30.35 in 9.0 mi North 16.1 mph 20.7 mph 0.04 in   Overcast
11:15 PM 57.2 °F 55.4 °F 94% 30.36 in 2.5 mi North 6.9 mph 16.1 mph 0.08 in   Overcast
11:35 PM 57.2 °F 55.4 °F 94% 30.37 in 7.0 mi Calm Calm - 0.12 in   Mostly Cloudy
11:55 PM 57.2 °F 57.2 °F 100% 30.35 in 10.0 mi Calm Calm - 0.13 in   Overcast